Location: Batang Balui
(2.7000°N, 113.7833°E)
Time: 00:36:26
(UTC+00:00)

FO-29 - Pass Details

Date: 09 April 2023
Orbit: 799 x 1322 km, 98.5° (Epoch: 29 May)

Event Time Altitude Azimuth Distance (km) Brightness Sun altitude
Rises 21:34:37 0° 357° (N) 3,789 12.7 -12.4°
Reaches altitude 10° 21:37:26 10° 349° (N) 2,756 11.8 -11.7°
Maximum altitude 21:42:56 36° 285° (WNW) 1,424 9.9 -10.4°
Drops below altitude 10° 21:47:56 10° 220° (SW) 2,494 11.2 -9.2°
Sets 21:50:23 0° 211° (SSW) 3,384 12.0 -8.5°
